Retour au catalogue

PEGASUS R/B

ActifPO
NORAD 23106·ROCKET BODY·🇺🇸 United States

Lancé May 19, 1994 depuis Vandenberg Space Force Base

Loading…

Prochains Passages (prochaines 24 heures)

TLE

FraisSource: Space-Track

Époque: Sep 14, 2026, 04:56 UTC

1 23106U 94029B   26257.20583428  .00000652  00000-0  80853-4 0  9991
2 23106  81.9588 171.4412 0110810 201.3053 158.3527 14.76873806728411

Suivez PEGASUS R/B en temps réel avec AllMySat

Download on the App Store